• In Germany
  • List of Countries
  • For 7 days
  • Water Temperature
  • Satellite Maps
  • Weather Map
  • Weather Widgets
  • user-avatar
    Login

    Hourly Weather Paro

    Today, 19 October, Friday

    Time Temperature Precipitation Wind Pressure Humidity
    00:00 +8°C° 0 mm 1 mps 560 mmHg 86%
    01:00 +8°C° 0 mm 1 mps 560 mmHg 85%
    02:00 +8°C° 0 mm 1 mps 560 mmHg 84%
    03:00 +6°C° 0 mm 2 mps 560 mmHg 82%
    04:00 +6°C° 0 mm 2 mps 560 mmHg 80%
    05:00 +6°C° 0 mm 2 mps 560 mmHg 78%
    06:00 +7°C° 0 mm 1 mps 560 mmHg 81%
    07:00 +9°C° 0 mm 2 mps 562 mmHg 71%
    08:00 +12°C° 0 mm 2 mps 563 mmHg 62%
    09:00 +15°C° 0 mm 2 mps 565 mmHg 52%
    10:00 +15°C° 0 mm 2 mps 565 mmHg 52%
    11:00 +16°C° 0 mm 3 mps 565 mmHg 52%
    12:00 +17°C° 0 mm 3 mps 565 mmHg 51%
    13:00 +16°C° 0 mm 3 mps 564 mmHg 57%
    14:00 +16°C° 0 mm 3 mps 564 mmHg 62%
    15:00 +14°C° 0 mm 3 mps 563 mmHg 67%
    16:00 +14°C° 0.1 mm 2 mps 562 mmHg 76%
    17:00 +12°C° 0.1 mm 2 mps 562 mmHg 85%
    18:00 +11°C° 0.1 mm 1 mps 562 mmHg 93%
    19:00 +10°C° 0 mm 1 mps 562 mmHg 92%
    20:00 +10°C° 0 mm 1 mps 562 mmHg 91%
    21:00 +9°C° 0 mm 1 mps 562 mmHg 90%
    22:00 +9°C° 0 mm 1 mps 562 mmHg 89%
    23:00 +9°C° 0 mm 1 mps 562 mmHg 87%

    Tomorrow, 20 October, Saturday

    Time Temperature Precipitation Wind Pressure Humidity
    00:00 +7°C° 0 mm 2 mps 562 mmHg 86%
    01:00 +7°C° 0 mm 2 mps 562 mmHg 85%
    02:00 +7°C° 0 mm 2 mps 562 mmHg 84%
    03:00 +7°C° 0 mm 2 mps 561 mmHg 83%
    04:00 +6°C° 0 mm 2 mps 561 mmHg 82%
    05:00 +6°C° 0 mm 2 mps 561 mmHg 81%
    06:00 +6°C° 0 mm 2 mps 562 mmHg 79%
    07:00 +9°C° 0 mm 2 mps 563 mmHg 70%
    08:00 +12°C° 0 mm 2 mps 565 mmHg 60%
    09:00 +15°C° 0 mm 2 mps 566 mmHg 51%
    10:00 +16°C° 0 mm 2 mps 566 mmHg 49%
    11:00 +17°C° 0 mm 3 mps 566 mmHg 48%
    12:00 +18°C° 0 mm 3 mps 566 mmHg 47%
    13:00 +17°C° 0 mm 3 mps 565 mmHg 54%
    14:00 +16°C° 0 mm 3 mps 565 mmHg 60%
    15:00 +14°C° 0 mm 3 mps 564 mmHg 67%
    16:00 +14°C° 0 mm 2 mps 563 mmHg 76%
    17:00 +12°C° 0 mm 2 mps 563 mmHg 85%
    18:00 +10°C° 0 mm 1 mps 562 mmHg 94%
    19:00 +10°C° 0 mm 1 mps 562 mmHg 92%
    20:00 +10°C° 0 mm 1 mps 563 mmHg 91%
    21:00 +9°C° 0 mm 1 mps 563 mmHg 89%
    22:00 +9°C° 0 mm 1 mps 563 mmHg 88%
    23:00 +9°C° 0 mm 1 mps 563 mmHg 87%

    Day after tomorrow, 21 October, Sunday

    Time Temperature Precipitation Wind Pressure Humidity
    00:00 +9°C° 0 mm 1 mps 563 mmHg 86%
    01:00 +8°C° 0 mm 1 mps 562 mmHg 85%
    02:00 +7°C° 0 mm 2 mps 562 mmHg 84%
    03:00 +7°C° 0 mm 2 mps 562 mmHg 83%
    04:00 +6°C° 0 mm 2 mps 562 mmHg 82%
    05:00 +6°C° 0 mm 2 mps 562 mmHg 80%
    06:00 +6°C° 0 mm 2 mps 562 mmHg 78%
    07:00 +9°C° 0 mm 2 mps 564 mmHg 69%
    08:00 +12°C° 0 mm 2 mps 565 mmHg 60%
    09:00 +15°C° 0 mm 2 mps 567 mmHg 50%
    10:00 +16°C° 0 mm 2 mps 567 mmHg 49%
    11:00 +17°C° 0 mm 3 mps 567 mmHg 49%
    12:00 +18°C° 0 mm 3 mps 567 mmHg 48%
    13:00 +17°C° 0.1 mm 3 mps 566 mmHg 54%
    14:00 +16°C° 0.1 mm 3 mps 565 mmHg 60%
    15:00 +14°C° 0.1 mm 3 mps 564 mmHg 67%
    16:00 +13°C° 0.1 mm 2 mps 563 mmHg 76%
    17:00 +12°C° 0.1 mm 2 mps 563 mmHg 84%
    18:00 +10°C° 0.1 mm 1 mps 562 mmHg 93%
    19:00 +10°C° 0 mm 1 mps 562 mmHg 92%
    20:00 +9°C° 0 mm 1 mps 562 mmHg 90%
    21:00 +8°C° 0 mm 2 mps 563 mmHg 89%
    22:00 +8°C° 0 mm 2 mps 562 mmHg 87%
    23:00 +7°C° 0 mm 2 mps 562 mmHg 86%

    22 October, Monday

    Time Temperature Precipitation Wind Pressure Humidity
    00:00 +7°C° 0 mm 2 mps 562 mmHg 84%
    01:00 +7°C° 0 mm 2 mps 561 mmHg 83%
    02:00 +6°C° 0 mm 2 mps 561 mmHg 82%
    03:00 +6°C° 0 mm 2 mps 561 mmHg 81%
    04:00 +6°C° 0 mm 2 mps 561 mmHg 79%
    05:00 +6°C° 0 mm 2 mps 561 mmHg 77%
    06:00 +5°C° 0 mm 2 mps 561 mmHg 75%
    07:00 +8°C° 0 mm 2 mps 563 mmHg 66%
    08:00 +12°C° 0 mm 2 mps 564 mmHg 56%
    09:00 +15°C° 0 mm 1 mps 566 mmHg 46%
    10:00 +15°C° 0 mm 2 mps 566 mmHg 46%
    11:00 +16°C° 0 mm 3 mps 566 mmHg 45%
    12:00 +17°C° 0 mm 3 mps 566 mmHg 44%
    13:00 +17°C° 0.1 mm 3 mps 565 mmHg 50%
    14:00 +16°C° 0.1 mm 3 mps 564 mmHg 56%
    15:00 +14°C° 0.1 mm 3 mps 563 mmHg 62%
    16:00 +13°C° 0.1 mm 2 mps 562 mmHg 72%
    17:00 +12°C° 0.1 mm 2 mps 562 mmHg 83%
    18:00 +10°C° 0.1 mm 1 mps 561 mmHg 93%
    19:00 +9°C° 0 mm 1 mps 561 mmHg 92%
    20:00 +9°C° 0 mm 1 mps 562 mmHg 91%
    21:00 +9°C° 0 mm 1 mps 562 mmHg 90%
    22:00 +8°C° 0 mm 1 mps 562 mmHg 88%
    23:00 +7°C° 0 mm 2 mps 562 mmHg 86%

    23 October, Tuesday

    Time Temperature Precipitation Wind Pressure Humidity
    00:00 +7°C° 0 mm 2 mps 561 mmHg 84%
    01:00 +6°C° 0 mm 2 mps 561 mmHg 83%
    02:00 +6°C° 0 mm 2 mps 561 mmHg 81%
    03:00 +6°C° 0 mm 2 mps 560 mmHg 80%
    04:00 +5°C° 0 mm 2 mps 560 mmHg 78%
    05:00 +5°C° 0 mm 2 mps 560 mmHg 75%
    06:00 +5°C° 0 mm 2 mps 561 mmHg 73%
    07:00 +8°C° 0 mm 2 mps 562 mmHg 62%
    08:00 +12°C° 0 mm 2 mps 564 mmHg 52%
    09:00 +15°C° 0 mm 1 mps 565 mmHg 41%
    10:00 +15°C° 0 mm 2 mps 565 mmHg 41%
    11:00 +16°C° 0 mm 3 mps 565 mmHg 40%
    12:00 +17°C° 0 mm 3 mps 565 mmHg 39%
    13:00 +17°C° 0.1 mm 3 mps 564 mmHg 45%
    14:00 +16°C° 0.1 mm 3 mps 563 mmHg 50%
    15:00 +14°C° 0.1 mm 3 mps 562 mmHg 56%
    16:00 +13°C° 0 mm 2 mps 562 mmHg 67%
    17:00 +10°C° 0 mm 2 mps 561 mmHg 78%
    18:00 +8°C° 0 mm 2 mps 561 mmHg 89%
    19:00 +8°C° 0 mm 2 mps 561 mmHg 88%
    20:00 +8°C° 0 mm 2 mps 561 mmHg 87%
    21:00 +7°C° 0 mm 2 mps 562 mmHg 86%
    22:00 +7°C° 0 mm 2 mps 561 mmHg 85%
    23:00 +7°C° 0 mm 2 mps 561 mmHg 83%

    24 October, Wednesday

    Time Temperature Precipitation Wind Pressure Humidity
    00:00 +6°C° 0 mm 2 mps 561 mmHg 81%
    01:00 +6°C° 0 mm 2 mps 561 mmHg 79%
    02:00 +6°C° 0 mm 2 mps 560 mmHg 77%
    03:00 +6°C° 0 mm 2 mps 560 mmHg 75%
    04:00 +5°C° 0 mm 2 mps 560 mmHg 73%
    05:00 +5°C° 0 mm 2 mps 560 mmHg 72%
    06:00 +5°C° 0 mm 2 mps 560 mmHg 70%
    07:00 +7°C° 0 mm 2 mps 562 mmHg 59%
    08:00 +10°C° 0 mm 2 mps 564 mmHg 49%
    09:00 +14°C° 0 mm 2 mps 565 mmHg 38%
    10:00 +15°C° 0 mm 2 mps 565 mmHg 37%
    11:00 +14°C° 0 mm 3 mps 565 mmHg 35%
    12:00 +15°C° 0 mm 4 mps 565 mmHg 34%
    13:00 +16°C° 0 mm 3 mps 564 mmHg 38%
    14:00 +14°C° 0 mm 3 mps 563 mmHg 41%
    15:00 +13°C° 0 mm 3 mps 563 mmHg 45%
    16:00 +11°C° 0.1 mm 3 mps 562 mmHg 56%
    17:00 +9°C° 0.1 mm 2 mps 561 mmHg 67%
    18:00 +8°C° 0.1 mm 1 mps 561 mmHg 78%
    19:00 +6°C° 0 mm 2 mps 561 mmHg 76%
    20:00 +6°C° 0 mm 2 mps 561 mmHg 74%
    21:00 +5°C° 0 mm 2 mps 562 mmHg 73%
    22:00 +5°C° 0 mm 2 mps 561 mmHg 70%
    23:00 +5°C° 0 mm 2 mps 561 mmHg 67%
    Show more